﻿METLOCID,DATE_TIME,AVG_PAR,STDDEV_PAR,MIN_PAR,MAX_PAR,N_PAR,AVG_SWRADIN,STDDEV_SWRADIN,MIN_SWRADIN,MAX_SWRADIN,N_SWRADIN,AVG_SWRADOUT,STDDEV_SWRADOUT,MIN_SWRADOUT,MAX_SWRADOUT,N_SWRADOUT
FRLM,12/1/93,701.5005121,383.2013707,67.2,1810.9,3515,,,,,0,,,,,0
FRLM,1/1/94,873.1888422,467.3565522,66.6,2291.6,1667,350.796347,186.4286382,17.1,824,876,69.69520548,52.34301569,0,175.4,876
FRLM,2/1/94,393.3450893,315.3921997,1.2,1201.7,224,187.3785714,142.9920158,0,575.8,224,117.18125,109.5206453,0,353.1,224
FRLM,3/1/94,135.0258065,180.9588845,0,759.6,248,71.63225806,91.24766942,0,355,248,58.66975806,73.88862017,0,303.5,248
FRLM,4/1/94,13.38208333,30.56390335,0,180.3,240,9.295,18.99899953,0,108.2,240,7.34375,14.17622953,0,74.6,240
FRLM,5/1/94,0.015322581,0.109872473,0,0.9,248,0.095564516,0.412875377,0,3.2,248,0.14233871,0.531994352,0,4.8,248
FRLM,6/1/94,0,0,0,0,240,0.138333333,0.559016371,0,4.7,240,0.18375,0.521771303,0,3.9,240
FRLM,7/1/94,0,0,0,0,248,0.172983871,0.64860171,0,4.4,248,0.158064516,0.499164772,0,3.1,248
FRLM,8/1/94,2.414112903,7.282350859,0,52.7,248,3.095564516,7.891471623,0,47.8,248,1.946774194,5.306301128,0,36.9,248
FRLM,9/1/94,74.66541667,123.6887919,0,545.6,240,40.21125,64.61265209,0,281.8,240,26.35041667,44.00909282,0,181.3,240
FRLM,10/1/94,278.8362903,276.8281049,0,1016.3,248,134.6717742,126.0108475,0,462.9,248,99.12782258,101.2064851,0,417.9,248
FRLM,11/1/94,619.8835476,399.6574255,37.5,1411.4,389,284.6871465,176.7881181,0,649.7,389,128.570437,92.17819377,0,343,389
FRLM,12/1/94,679.950224,393.8999575,79.6,1642.5,2232,295.3775986,168.6629195,44.1,760,2232,91.66344086,60.06218344,0,249.9,2232
FRLM,1/1/95,636.8647824,394.1171647,45.9,1461.9,2229,279.1395693,170.8195882,0,695.9,2229,71.70462091,48.96695677,0,201.6,2229
FRLM,2/1/95,384.5266369,348.1935901,0.6,1235.3,2016,167.3056052,159.4478601,0,563.3,2016,49.87425595,57.94427842,0,297.6,2016
FRLM,3/1/95,125.2451165,175.2680926,0,814.4,2232,49.27334229,79.25099403,0,360.5,2232,38.29646057,63.06944691,0,297.9,2232
FRLM,4/1/95,13.53574074,32.76271323,0,249.8,2160,6.988935185,20.20563239,0,158.2,2160,4.543055556,13.75354223,0,84.9,2160
FRLM,5/1/95,0.020833333,0.176043027,0,2,2232,0.695430108,2.608766501,0,21.7,2232,0.452508961,1.866355729,0,15.9,2232
FRLM,6/1/95,0,0,0,0,2160,0.862037037,3.019296213,0,21.7,2160,0.603240741,2.210386166,0,24.2,2160
FRLM,7/1/95,0,0,0,0,2232,0.625044803,2.367620172,0,19.9,2232,0.542249104,2.184159786,0,25.2,2232
FRLM,8/1/95,2.712679211,9.181851977,0,88,2232,1.635259857,7.937554781,0,72.5,2232,0.836200717,5.329734213,0,74.7,2232
FRLM,9/1/95,61.98564815,108.4436426,0,577.1,2160,27.86333333,53.48996614,0,344.3,2160,11.42134259,25.18280314,0,149.5,2160
FRLM,10/1/95,289.9014785,293.4294147,0,1076.1,2232,117.7229391,128.6073577,0,450,2232,45.63409498,61.02687652,0,226.1,2232
FRLM,11/1/95,579.8383872,378.8655749,26,1766.5,2381,260.6790844,182.9891925,0,926,2381,92.58639227,72.57153196,0,311.5,2381
FRLM,12/1/95,682.5883401,401.9116149,75.8,1801.2,2976,332.8066532,205.8005132,30.8,927,2976,72.25883737,44.56751822,7.1,180.8,2976
FRLM,1/1/96,575.1036639,375.9621453,41.1,1813.7,2975,277.9091429,191.2314731,14.3,938,2975,55.86658824,38.17044887,2.6,181.4,2975
FRLM,2/1/96,385.8949713,324.2586648,0.7,1322.8,2784,189.0051365,162.7611501,0.2,654.4,2784,40.4012931,34.72926197,0,128.9,2784
FRLM,3/1/96,106.1266129,153.0462474,0,751,2976,52.43427419,79.54772137,0,383.9,2976,26.7530914,47.33039619,0,311.5,2976
FRLM,4/1/96,10.18052083,24.24912983,0,187.1,2880,4.2228125,11.11980592,0,116.3,2880,1.292118056,3.593302165,0,40.6,2880
FRLM,5/1/96,0.016666667,0.136552183,0,1.9,2976,0.009643817,0.070706453,0,1,2976,0.010383065,0.073448463,0,1,2976
FRLM,6/1/96,0,0,0,0,2880,0,0,0,0,2880,0,0,0,0,2880
FRLM,7/1/96,0,0,0,0,2976,6.72E-05,0.002591944,0,0.1,2976,0.000134409,0.003664329,0,0.1,2976
FRLM,8/1/96,2.42138534,8.472577397,0,61.2,2974,1.108238063,3.882351946,0,32.9,2974,0.497141896,1.564359363,0,12.7,2974
FRLM,9/1/96,67.59090278,114.9448297,0,544.2,2880,32.86107639,60.86182771,0,284.8,2880,11.64190972,21.64057649,0,103.6,2880
FRLM,10/1/96,285.1907258,290.1330417,0,1063.5,2976,138.9173051,146.7871187,0,531.5,2976,76.68514785,85.57890913,0,316.7,2976
FRLM,11/1/96,562.0522585,368.0994431,22.9,1462.9,2878,276.7803683,183.1879096,7.2,749,2878,97.48387769,76.46435941,3.6,388.6,2878
FRLM,12/1/96,677.4669691,395.7419239,61.2,1741.6,2976,329.4977487,193.5465185,26.4,845,2976,70.85564516,46.05251706,4.6,345.4,2976
FRLM,1/1/97,572.1924395,377.9116174,34.7,1562.7,2976,260.5930108,178.7909792,12,725,2976,74.01196237,69.34687782,2.3,426.6,2976
FRLM,2/1/97,383.2008557,329.9057959,0.5,1170.3,2688,178.7848586,158.9082908,0.2,569.3,2688,48.54862351,42.45810131,0,195.5,2688
FRLM,3/1/97,116.6445565,174.0459513,0,709.4,2976,54.36018145,87.28468398,0,350,2976,29.43326613,44.20784548,0,199.4,2976
FRLM,4/1/97,9.9728125,24.06392163,0,206.5,2880,4.010798611,11.19005839,0,117.2,2880,2.853784722,8.457927233,0,91.2,2880
FRLM,5/1/97,0.01515457,0.12365108,0,1.9,2976,0.007762097,0.059041918,0,0.8,2976,0.00577957,0.060253223,0,1,2976
FRLM,6/1/97,0,0,0,0,2880,0,0,0,0,2880,0,0,0,0,2880
FRLM,7/1/97,0,0,0,0,2975,0,0,0,0,2975,0,0,0,0,2975
FRLM,8/1/97,2.725403226,9.200287528,0,70,2976,1.149462366,3.900408043,0,30.8,2976,0.658232527,2.178080128,0,17.2,2976
FRLM,9/1/97,62.40350694,107.4181949,0,588.9,2880,28.66545139,54.00692143,0,305.3,2880,17.06211806,32.24401276,0,167.1,2880
FRLM,10/1/97,249.8518145,269.8861234,0,1046.9,2976,115.0813172,129.2696485,0,507.5,2976,43.61992608,50.74971285,0,235.7,2976
FRLM,11/1/97,474.1694261,362.3698816,16.8,1611.4,2875,221.13258,176.9021367,6.3,818,2876,53.83803062,45.34976257,1.6,167.8,2874
FRLM,12/1/97,629.8055126,402.1406438,37.5,1993.9,2975,296.6438638,197.4499028,16.1,894,2966,59.12899866,42.15292012,2.4,249.4,2976
FRLM,1/1/98,594.6293011,381.9668921,39.4,1811.2,2976,281.7424538,188.4513132,17.6,867,2975,62.70853495,52.5000293,2.6,519.2,2976
FRLM,2/1/98,345.4382068,313.0122715,0.7,1470.1,2688,144.6496652,145.7672249,0.2,729,2688,78.75230655,92.48716775,0.1,487.1,2688
FRLM,3/1/98,134.2308468,196.9278031,0,949.7,2976,65.11209677,99.17139118,0,476.7,2976,42.27627688,62.37494095,0,293.2,2976
FRLM,4/1/98,8.493854167,19.50725163,0,177.8,2880,3.63375,9.726875919,0,101.7,2880,4.2440625,14.24119404,0,168.8,2880
FRLM,5/1/98,0.018817204,0.153356,0,1.9,2976,0.014516129,0.089128183,0,1,2976,0.007526882,0.047567371,0,0.6,2976
FRLM,6/1/98,0,0,0,0,2880,0,0,0,0,2880,6.94E-05,0.002634774,0,0.1,2880
FRLM,7/1/98,0,0,0,0,2976,0,0,0,0,2976,6.72E-05,0.002591944,0,0.1,2976
FRLM,8/1/98,2.296337366,8.410927867,0,71.8,2976,1.14375,3.905560946,0,36.1,2976,0.543044355,1.637250823,0,13.2,2976
FRLM,9/1/98,59.14572917,98.93706096,0,524.7,2880,26.93600694,46.30021713,0,248.5,2880,20.49631944,41.26779983,0,215.8,2880
FRLM,10/1/98,290.821875,295.9234537,0,1144.7,2976,140.3398185,147.5481711,0,582.5,2976,60.34489247,65.29849935,0,303.1,2976
FRLM,11/1/98,591.7021875,382.1468931,36,1454.4,2880,288.6658681,189.7609589,11.2,723,2880,91.66527778,67.89426215,3,299,2880
FRLM,12/1/98,753.9050067,417.6146333,84.7,1562.9,2976,373.1299395,205.2050062,36.4,781,2976,80.95675403,48.96004759,6.9,197.5,2976
FRLM,1/1/99,549.6207325,367.9994589,37.2,1819.8,2976,266.8301176,184.0875094,16.5,847,2975,50.05735887,38.34755566,2.4,244.9,2976
FRLM,2/1/99,390.1100818,339.9303362,0.9,1286,2688,193.6251488,174.6896074,0.3,663.2,2688,46.37090774,50.24304304,0.2,351.5,2688
FRLM,3/1/99,138.0005712,190.2130618,0,791.1,2976,67.60292339,96.37838724,0,427.1,2976,44.09815188,73.44389323,0,352.2,2976
FRLM,4/1/99,9.659409722,24.47459476,0,172.1,2880,4.627534722,12.19482985,0,105.5,2880,3.131493056,7.554261133,0,65.5,2880
FRLM,5/1/99,0.026176075,0.19866012,0,2.9,2976,0.018514785,0.118207673,0,1.4,2976,0.009038978,0.056944176,0,0.8,2976
FRLM,6/1/99,0,0,0,0,2880,0,0,0,0,2880,6.94E-05,0.002634774,0,0.1,2880
FRLM,7/1/99,0,0,0,0,2976,0,0,0,0,2976,3.36E-05,0.001833089,0,0.1,2976
FRLM,8/1/99,1.182090054,3.88948228,0,25.9,2976,0.646875,1.908763596,0,13.4,2976,0.753259409,2.29700341,0,16.2,2976
FRLM,9/1/99,42.43222222,76.08569023,0,500.3,2880,21.91576389,40.98210482,0,266.8,2880,17.74475694,34.45642511,0,206.6,2880
FRLM,10/1/99,276.3161962,279.2999445,0,1111.8,2976,144.637164,152.0522721,0,616.8,2976,61.88975134,67.52990363,0,297.7,2976
FRLM,11/1/99,491.2603125,347.3559738,8.7,1420.1,2880,254.0675,185.9147427,2.8,774,2880,73.2421875,59.03744358,0.7,259.7,2880
FRLM,12/1/99,648.8366263,372.5917588,48.7,1672.8,2976,342.3361036,197.3320799,21.2,890,2972,71.1203629,44.95437704,3.8,204.7,2976
FRLM,1/1/00,695.4037634,427.2181207,55.6,1802.5,2976,314.7935798,192.4632759,19.3,817,2975,64.76438172,42.5207628,3.6,174.9,2976
FRLM,2/1/00,417.4896226,370.8145357,0,1494.6,2756,181.9112482,165.4946998,0.2,686.6,2756,44.05997823,41.41536313,0,216.2,2756
FRLM,3/1/00,132.4013105,192.0508382,0,1033.5,2976,55.54862231,84.11374678,0,470.3,2976,20.32872984,32.43860421,0,212.1,2976
FRLM,4/1/00,18.17917437,32.49362753,0,210.9,1623,6.993538462,13.56499185,0,105.9,1625,4.034935305,8.558744894,0,77.5,1623
FRLM,5/1/00,,,,,0,,,,,0,,,,,0
FRLM,6/1/00,,,,,0,,,,,0,,,,,0
FRLM,7/1/00,0,0,0,0,863,0,0,0,0,863,0.000347625,0.010212119,0,0.3,863
FRLM,8/1/00,3.438340054,10.73625501,0,81.3,2976,1.338642473,3.893220831,0,37.3,2976,0.438608871,1.149446903,0,8.5,2976
FRLM,9/1/00,68.25128472,124.5493646,0,610.1,2880,27.74201389,54.66465278,0,258.7,2880,12.78114583,24.50342553,0,129.1,2880
FRLM,10/1/00,321.9117944,323.1630439,0,1186.7,2976,141.2997312,143.5999178,0,532.1,2976,62.13051075,70.62107441,0,253.8,2976
FRLM,11/1/00,525.86125,382.9194881,26.8,1545.2,2880,240.0484017,178.2594621,11,772,2878,74.875625,66.68249501,2.5,328.1,2880
FRLM,12/1/00,729.1693884,417.7701022,84.9,1733.1,2976,345.6239583,195.1924666,30.7,848,2976,72.26055108,45.02625844,6.6,196.3,2976
FRLM,1/1/01,645.6273858,410.7144238,75.5,1741.8,2976,304.5561156,194.9123782,17.5,848,2976,61.75221774,42.66927364,3.4,181.3,2976
FRLM,2/1/01,400.0068824,346.2430578,0.9,1350.1,2688,184.3232515,163.7253229,0.2,645.3,2688,39.58876488,36.78198051,0,134.7,2688
FRLM,3/1/01,144.8686828,206.2282122,0,859.2,2976,62.50299059,92.93185674,0,397.2,2976,19.93329973,33.47506479,0,207.9,2976
FRLM,4/1/01,10.04975694,26.43932965,0,261.5,2880,3.688923611,10.73938577,0,117.1,2880,2.822777778,7.643181511,0,61.4,2880
FRLM,5/1/01,0.038844086,0.188518883,0,2,2976,0.015356183,0.07732551,0,0.6,2976,0.004200269,0.035254163,0,0.4,2976
FRLM,6/1/01,0.004667243,0.055674902,0,1,2314,0.003327571,0.021652222,0,0.2,2314,0,0,0,0,2314
FRLM,7/1/01,,,,,0,,,,,0,,,,,0
FRLM,8/1/01,,,,,0,,,,,0,,,,,0
FRLM,9/1/01,,,,,0,,,,,0,,,,,0
FRLM,10/1/01,,,,,0,,,,,0,,,,,0
FRLM,11/1/01,750.653125,389.5522987,165.2,1442.6,288,364.9118056,197.4737652,69.4,724,288,73.89409722,42.96534297,12.8,151.7,288
FRLM,12/1/01,755.259039,391.7158777,57.4,1717.2,2976,370.0773858,201.3533479,21.5,877,2976,69.84939516,40.76668173,4,173.5,2976
FRLM,1/1/02,607.2794691,390.4256371,51.3,1549.5,2976,297.6871976,200.9296994,17,800,2976,55.39952957,38.63492329,2.7,221.4,2976
FRLM,2/1/02,347.8727307,315.12642,0,1290,2688,175.4790551,166.3080327,0.3,681.9,2688,40.79404762,40.73700982,0,159.5,2688
FRLM,3/1/02,126.6108535,176.9678838,0,775.3,2976,64.57745296,95.41587623,0,418.5,2976,28.42573925,47.39143556,0,305.6,2976
FRLM,4/1/02,10.68135417,25.52296808,0,235,2880,4.240277778,12.24603753,0,141.1,2880,1.930868056,6.492259153,0,82.6,2880
FRLM,5/1/02,0.010651882,0.117641151,0,1.7,2976,0.008669355,0.063659627,0,0.8,2976,0.005611559,0.039306112,0,0.4,2976
FRLM,6/1/02,0.000104167,0.004166088,0,0.2,2880,0.001284722,0.013761812,0,0.2,2880,0.027708333,0.048056623,0,0.4,2880
FRLM,7/1/02,0.000403226,0.009693039,0,0.3,2976,0.004233871,0.02597124,0,0.3,2976,0.059509409,0.055582126,0,0.3,2976
FRLM,8/1/02,2.351915323,7.816021664,0,68.9,2976,1.058602151,3.689152839,0,37.8,2976,0.58625672,1.916887174,0,19.5,2976
FRLM,9/1/02,59.30534722,111.3096787,0,513.5,2880,31.39954861,63.61915998,0,284.4,2880,19.05697917,34.6733383,0,161.9,2880
FRLM,10/1/02,266.8356519,270.7217687,0,1098.1,2976,128.2388777,135.9670911,0,579.7,2976,74.6359543,87.82737467,0,456.9,2976
FRLM,11/1/02,560.2694792,369.3945733,15.2,1623,2880,283.5650347,190.6524997,5.7,877,2880,144.1270139,107.3404715,3.1,617,2880
FRLM,12/1/02,658.0270497,388.835853,23.3,1653,2976,327.8974798,199.583257,8.4,846,2976,88.68007392,56.16066337,1.8,418.5,2976
FRLM,1/1/03,520.4088374,379.4710121,15.4,1957.2,2976,255.800168,196.253415,5.5,1040,2976,52.90302419,41.91485845,0.9,210.9,2976
FRLM,2/1/03,360.3970982,326.5065242,0.7,1269.1,2688,180.2723958,171.71093,0.2,663,2688,40.59780506,40.37013057,0.1,293,2688
FRLM,3/1/03,122.1925067,168.5517831,0,708.1,2976,62.84858871,94.26181097,0,509,2976,45.61024866,76.02225454,0,348.9,2976
FRLM,4/1/03,7.117465278,16.72969825,0,165.6,2880,3.216631944,9.118455788,0,107.6,2880,4.480625,13.12919767,0,175.7,2880
FRLM,5/1/03,0.011592742,0.118321667,0,1.7,2976,0.014549731,0.064404177,0,1,2976,0.067405914,0.096976777,0,1.2,2976
FRLM,6/1/03,0,0,0,0,2880,0.003368056,0.02218782,0,0.2,2880,0.041284722,0.054595187,0,0.2,2880
FRLM,7/1/03,0,0,0,0,2976,0.003797043,0.023242192,0,0.2,2976,0.04593414,0.055400158,0,0.3,2976
FRLM,8/1/03,2.303629032,7.696104893,0,53.2,2976,0.906854839,2.992586929,0,26,2976,0.647580645,1.835866986,0,15,2976
FRLM,9/1/03,53.29388889,92.22939365,0,533.5,2880,25.44670139,48.83124377,0,296.5,2880,13.69722222,26.03617796,0,148.2,2880
FRLM,10/1/03,274.7055444,286.6418396,0,1107.2,2976,142.5610887,153.747843,0,583.6,2976,54.0547043,61.48685307,0,266.2,2976
FRLM,11/1/03,517.9522917,351.5164462,26,1388,2880,259.7717361,183.4700262,10.5,731,2880,74.23211806,53.98590762,2.9,276,2880
FRLM,12/1/03,665.2972782,384.0468713,58.7,1758.8,2976,328.980578,197.8158269,24.8,914,2976,93.59485714,62.13435524,6,370,2975
FRLM,1/1/04,625.4059476,375.693811,69.2,1611.6,2976,301.2817876,189.9352103,17.4,818,2976,58.15544355,37.64390094,2.9,167.7,2976
FRLM,2/1/04,379.2569325,325.8967505,0,1153.6,2784,182.3744612,164.8208153,0.2,582.8,2784,50.16605603,58.42890106,0.1,343,2784
FRLM,3/1/04,136.4841734,194.2116528,0,1044.8,2976,66.05184812,99.00716886,0,545.2,2976,40.27328629,60.38935914,0,321.1,2976
FRLM,4/1/04,10.95145833,25.87166415,0,224.1,2880,4.602465278,12.47425598,0,137,2880,2.831493056,8.495626106,0,127.9,2880
FRLM,5/1/04,0.026512097,0.211181706,0,2.1,2976,0.023219086,0.113678836,0,1.2,2976,0.010383065,0.062414078,0,0.8,2976
FRLM,6/1/04,0.000138889,0.003724838,0,0.1,2880,0.005451389,0.032088435,0,0.5,2880,0.000798611,0.009284272,0,0.2,2880
FRLM,7/1/04,0.00047043,0.010680091,0,0.4,2976,0.003494624,0.023217321,0,0.3,2976,0.00047043,0.008185689,0,0.2,2976
FRLM,8/1/04,2.32936828,6.889716932,0,45,2976,1.035819892,2.820490547,0,21.6,2976,0.459811828,1.866257072,0,25.5,2976
FRLM,9/1/04,67.9178125,116.5210319,0,545.5,2880,32.18006944,57.75302995,0,275.5,2880,23.26072917,43.75063637,0,235.9,2880
FRLM,10/1/04,287.5015793,283.9764094,0,1119,2976,142.6774866,146.3493703,0,574.7,2976,58.70262097,67.87900526,0,288.1,2976
FRLM,11/1/04,532.0797917,347.0204323,20,1348.7,2880,261.4035417,178.5781098,7.7,693.6,2880,56.16472222,39.54915617,1.4,171.9,2880
FRLM,12/1/04,610.6562164,363.745857,78.7,1573.8,2976,295.6431452,186.4772946,33.5,811,2976,54.64240591,35.02135506,5.4,189.6,2976
FRLM,1/1/05,520.6795363,355.231011,16.1,1657.2,2976,248.9859207,181.2924861,5.7,844,2976,45.85641801,33.58926208,0.9,247.3,2976
FRLM,2/1/05,368.3986607,319.3624927,1,1156.7,2688,178.8151414,164.654275,0.3,599.2,2688,61.27775298,76.13957706,0.2,409.3,2688
FRLM,3/1/05,125.9703965,170.8248994,0,726.5,2976,61.77103495,88.97905652,0,384.3,2976,32.54109543,51.28410845,0,273.4,2976
FRLM,4/1/05,10.83625,26.14804164,0,206.2,2880,4.891006944,12.35050933,0,116,2880,1.976111111,4.509364131,0,44.1,2880
FRLM,5/1/05,0.024395161,0.203902194,0,3.1,2976,0.024932796,0.125490616,0,1.6,2976,0.008064516,0.05477671,0,0.8,2976
FRLM,6/1/05,0.000486111,0.018443416,0,0.7,2880,0.001805556,0.019283908,0,0.4,2880,3.47E-05,0.00186339,0,0.1,2880
FRLM,7/1/05,0.000537634,0.016183193,0,0.6,2976,0.001041667,0.01380258,0,0.3,2976,0.000134409,0.003664329,0,0.1,2976
FRLM,8/1/05,2.73125,8.987316436,0,68.7,2976,1.226780914,3.751983926,0,31,2976,0.461290323,1.485429587,0,13.2,2976
FRLM,9/1/05,71.73336806,124.8346271,0,552.2,2880,35.31517361,66.99949782,0,291.8,2880,12.03444444,23.30904029,0,95,2880
FRLM,10/1/05,291.8877016,292.793099,0,1141,2976,146.3034946,152.803108,0,601.7,2976,40.20134409,42.0436845,0,160.8,2976
FRLM,11/1/05,544.9132639,357.1116845,24.2,1320.4,2880,270.6089583,186.5779969,10.4,695.8,2880,58.86618056,39.96854584,1.9,155.9,2880
FRLM,12/1/05,641.7347899,378.3090045,74.4,2097.9,2975,306.6881681,191.0936319,29.6,874,2975,60.60998319,39.25060061,5.4,235.2,2975
FRLM,1/1/06,583.9620968,386.9803447,27.1,1695.6,2976,273.5395497,188.7265255,10.7,838,2976,50.47708333,35.05380669,1.6,146.8,2976
FRLM,2/1/06,366.4027902,335.2986272,0,1195.1,2688,173.8084449,167.6634655,0,587.2,2688,54.23374256,55.45972192,0,313.3,2688
FRLM,3/1/06,116.3895161,176.9873315,0,795.3,2976,56.68941532,89.47824894,0,422.6,2976,30.23017473,48.51707969,0,295.2,2976
FRLM,4/1/06,11.24565972,25.67994303,0,204.7,2880,4.729444444,13.83990866,0,162,2880,3.0690625,9.974679536,0,111.7,2880
FRLM,5/1/06,0.027016129,0.21989142,0,3.2,2976,0.01438172,0.098602781,0,1.4,2976,0.004435484,0.036306129,0,0.5,2976
FRLM,6/1/06,0.000486111,0.007892105,0,0.2,2880,0.002152778,0.01794063,0,0.2,2880,0.000694444,0.009103838,0,0.2,2880
FRLM,7/1/06,0.001848118,0.02792448,0,0.8,2976,0.003629032,0.03420554,0,0.6,2976,0.001444892,0.016022956,0,0.3,2976
FRLM,8/1/06,2.290893817,7.180323797,0,51.7,2976,1.053763441,3.169396616,0,23.7,2976,0.769758065,2.753754853,0,32.7,2976
FRLM,9/1/06,54.48152778,89.26654673,0,534.4,2880,23.82472222,41.78337518,0,265.2,2880,15.92701389,38.44475924,0,333.3,2880
FRLM,10/1/06,292.4418347,294.3391982,0,1129.6,2976,137.0576277,143.7894818,0,558.1,2976,64.94932796,73.27718106,0,306.3,2976
FRLM,11/1/06,575.4276389,375.2738042,29.9,1569.6,2880,266.3790625,182.0045395,8.9,762,2880,91.70180556,71.37485936,3.6,384.5,2880
FRLM,12/1/06,695.8860887,394.6128263,90.5,1835,2976,328.1866263,191.9500842,35.6,909,2976,70.40356183,42.42325113,7.7,193,2976
FRLM,1/1/07,609.9897513,378.6810452,64,1757.4,2976,287.4783602,184.9831097,15.4,871,2976,53.77738575,35.63258045,2.4,157,2976
FRLM,2/1/07,341.2911458,305.5502138,0.7,1256.9,2688,157.409189,149.7723929,0.2,629.9,2688,47.10412946,62.41831773,0.2,376.8,2688
FRLM,3/1/07,140.0831653,195.2280312,0,747,2976,67.88067876,100.2738629,0,379.7,2976,33.29721102,59.24626266,0,339.5,2976
FRLM,4/1/07,11.30732639,29.31087222,0,259.9,2880,4.790381944,15.02622003,0,158.6,2880,3.158020833,9.39874495,0,105.4,2880
FRLM,5/1/07,0.024731183,0.214609111,0,3.2,2976,0.019724462,0.105148433,0,1.4,2976,0.006922043,0.04065599,0,0.4,2976
FRLM,6/1/07,0.000590278,0.017572324,0,0.7,2880,0.003194444,0.02320762,0,0.4,2880,0.000555556,0.007434118,0,0.1,2880
FRLM,7/1/07,0.000336022,0.011877017,0,0.6,2976,0.001680108,0.015024903,0,0.2,2976,0.000336022,0.005787961,0,0.1,2976
FRLM,8/1/07,2.684307796,9.046163162,0,77.1,2976,1.259979839,4.143740185,0,42.9,2976,0.568346774,2.080935332,0,19.9,2976
FRLM,9/1/07,61.12930556,105.0157188,0,515,2880,29.19315972,54.89868971,0,275.5,2880,12.80055556,22.99503699,0,115.7,2880
FRLM,10/1/07,264.1012097,283.4611514,0,1319.9,2976,124.1728495,137.5220781,0,690.8,2976,82.84418683,110.4770992,0,563.2,2976
FRLM,11/1/07,551.97625,369.1545114,38.7,1545.3,2880,254.2007986,179.1529825,10.3,771,2880,104.9032986,98.36687511,6.1,560.4,2880
FRLM,12/1/07,673.4262946,398.1761528,84,1630.5,2974,332.8838319,206.3266547,33.3,845,2975,70.83080027,46.90729885,5.7,204.8,2974
FRLM,1/1/08,572.4499664,366.1521104,52,1624.6,2976,284.3714382,192.2640395,19.4,858,2976,51.95641801,35.69493224,3.4,152.7,2976
FRLM,2/1/08,320.5205819,288.8636746,0,1274.9,2784,165.5068606,157.8574601,0.2,722,2784,36.46429598,38.44139559,0,282.9,2784
FRLM,3/1/08,113.606754,153.5236737,0,748.9,2976,58.65063844,84.57735593,0,431,2976,23.13545027,40.04882327,0,219.7,2976
FRLM,4/1/08,10.35947917,25.44281495,0,201.1,2880,5.005868056,14.86608289,0,145,2880,1.219131944,3.674925401,0,40.3,2880
FRLM,5/1/08,0.019018817,0.175052007,0,2,2976,0.018346774,0.100750572,0,1.4,2976,0.003326613,0.029545956,0,0.4,2976
FRLM,6/1/08,0,0,0,0,2880,0.001944444,0.015015462,0,0.2,2880,0,0,0,0,2880
FRLM,7/1/08,0.000436828,0.015658457,0,0.8,2976,0.003158602,0.022079377,0,0.3,2976,0.000168011,0.004096155,0,0.1,2976
FRLM,8/1/08,2.756619624,8.61366102,0,57.3,2976,1.26733871,3.684953066,0,33.3,2976,0.65047043,1.900204265,0,16.9,2976
FRLM,9/1/08,62.69069444,103.8704721,0,509.4,2880,32.69378472,58.7189578,0,308.2,2880,8.584548611,15.33427128,0,77.4,2880
FRLM,10/1/08,259.0398522,264.2465699,0,1024.4,2976,134.2156922,144.0592101,0,558.7,2976,46.08397177,51.47139065,0,277.2,2976
FRLM,11/1/08,549.3517708,345.0660251,14.3,1369.4,2880,284.7413889,189.3390569,4.3,750,2880,59.9209375,39.10347273,0.8,143.8,2880
FRLM,12/1/08,712.3429099,364.7829245,57.3,1577.4,2976,374.1425739,197.560223,21,852,2976,65.65077285,35.53294997,3.5,146.4,2976
FRLM,1/1/09,540.2233871,335.3766294,32.8,1624.6,2976,282.7353831,185.8870133,15.4,894,2976,54.32708333,35.59707427,2.3,154,2976
FRLM,2/1/09,323.9209449,285.5122076,0.8,1179,2688,172.8358631,161.3569084,0.2,676.9,2688,79.9735119,98.36257911,0.2,407.9,2688
FRLM,3/1/09,119.8585013,168.5423591,0,812,2976,66.30920699,99.8161889,0,472.8,2976,27.01125672,42.1932836,0,275.3,2976
FRLM,4/1/09,9.761666667,23.97753093,0,195.4,2880,4.606145833,12.77789291,0,144.2,2880,1.763298611,4.816072095,0,56.5,2880
FRLM,5/1/09,0.024731183,0.190937347,0,2.9,2976,0.015759409,0.10501842,0,1.6,2976,0.00406586,0.038461169,0,0.6,2976
FRLM,6/1/09,0.001423611,0.028043553,0,0.9,2880,0.0046875,0.027433451,0,0.3,2880,0,0,0,0,2880
FRLM,7/1/09,0.000806452,0.018316219,0,0.6,2976,0.004502688,0.028282275,0,0.4,2976,0.000134409,0.003664329,0,0.1,2976
FRLM,8/1/09,2.73921371,8.773974,0,75.4,2976,1.251780914,3.663141443,0,37.1,2976,0.551747312,1.646893782,0,16.2,2976
FRLM,9/1/09,67.71798611,116.1760787,0,723.3,2880,36.70527778,68.9889945,0,436.1,2880,12.37013889,24.39894665,0,181.9,2880
FRLM,10/1/09,260.3814852,267.6411138,0,1022.3,2976,138.3741599,148.6933234,0,580.4,2976,56.04375,58.15884601,0,233.5,2976
FRLM,11/1/09,527.3617923,363.7255157,12.7,1568.1,2879,274.019041,198.173265,5.2,829,2878,109.0959694,90.7137092,1.1,468.8,2878
FRLM,12/1/09,680.0886761,411.9613928,64,1821.5,2976,338.4858199,213.5769678,26.8,955,2976,74.42123656,49.39766952,5.4,214.3,2976
FRLM,1/1/10,567.3495632,365.7023746,33.8,1531.6,2976,282.3979839,192.7527724,14.6,792,2976,66.11454973,49.00210285,2.6,433,2976
FRLM,2/1/10,336.069494,304.7343856,0.1,1258.7,2688,169.012872,164.5153479,0.2,711,2688,61.48478423,65.78953368,0.2,387.5,2688
FRLM,3/1/10,120.1144153,171.1722458,0,734.8,2976,61.98706317,94.94132796,0,401.5,2976,26.52234543,40.59855089,0,193.3,2976
FRLM,4/1/10,11.54288194,29.17519569,0,265.1,2880,5.534340278,16.67445955,0,183.1,2880,3.118229167,10.81702299,0,113.2,2880
FRLM,5/1/10,0.024126344,0.189158,0,2.6,2976,0.015188172,0.098515868,0,1.3,2976,0.006283602,0.049032648,0,0.6,2976
FRLM,6/1/10,0,0,0,0,2880,0.000868056,0.01160646,0,0.2,2880,3.47E-05,0.00186339,0,0.1,2880
FRLM,7/1/10,0.000168011,0.006608271,0,0.3,2976,0.00094086,0.012667242,0,0.3,2976,0,0,0,0,2976
FRLM,8/1/10,1.332090054,3.924759818,0,29.9,2976,0.692305108,1.954084177,0,14.9,2976,0.987802419,3.450954184,0,29.7,2976
FRLM,9/1/10,57.16829861,94.08302102,0,446.7,2880,29.21350694,51.8130242,0,260.5,2880,23.80243056,53.0130011,0,293.3,2880
FRLM,10/1/10,279.3763105,281.9305553,0,1060.2,2976,145.0902218,152.7734932,0,576,2976,68.63602151,73.0253765,0,276.5,2976
FRLM,11/1/10,590.6396875,367.7682444,26.7,1530.3,2880,306.7109375,199.5206813,9.7,827,2880,85.24756944,56.51135787,2.7,213.6,2880